[[{"header":{"parameterUnit":"m.s-1","parameterCategory":1,"la1":30.2991,"la2":30.254,"lo1":-89.0895,"lo2":-89.0444,"dy":0.0017,"dx":0.0017,"nx":28,"ny":28,"refTime":"2024-03-02T09:00:00:Z","depth":0,"parameterNumber":2,"parameterNumberName":"U-component_of_WINDS"},"data":[0,0,0,0,0,0,0,0,0,0,0,0,0,0,0,0,0,0,0,0,0,0,0,0,0,0,0,0,0,0,0,0,0,0,0,0,0,0,0,0,0,0,0,0,0,0,0,0,0,0,0,0,0,0,0,0,0,0,-0.0593,-0.0594,0,-0.0668,-0.0669,-0.067,-0.0695,-0.0695,-0.0694,-0.0694,-0.0773,-0.0775,-0.0778,0,0,0,0,0,0,0,0,0,0,0,0,0,-0.0473,-0.0475,-0.0593,-0.0594,-0.0595,-0.0668,-0.0669,-0.067,-0.0695,-0.0695,-0.0694,-0.0694,-0.0772,-0.0775,-0.0778,0,0,0,0,0,0,0,0,0,0,0,0,0,-0.0534,-0.0476,-0.0593,-0.0616,-0.0619,-0.0668,-0.0669,-0.067,-0.0695,-0.0695,-0.0694,-0.0694,-0.0771,-0.0775,-0.0778,-0.081,0,0,-0.0789,-0.0791,0,0,0,0,0,0,0,0,-0.0531,-0.0539,-0.0612,-0.0614,-0.0618,-0.0671,-0.0656,-0.0717,-0.0695,-0.0666,-0.0694,-0.0693,-0.074,-0.0746,-0.0761,-0.0814,-0.0817,-0.079,-0.0792,-0.0793,-0.0794,0,0,0,0,0,0,0,-0.0526,-0.0536,-0.0623,-0.0613,-0.0616,-0.0623,-0.0631,-0.0667,-0.0705,-0.0669,-0.0671,-0.0679,-0.0741,-0.0758,-0.0763,-0.0818,-0.079,-0.0793,-0.0795,-0.0796,-0.0901,-0.0902,0,0,0,0,0,0,-0.0518,-0.0532,-0.062,-0.0625,-0.0572,-0.0626,-0.0635,-0.0655,-0.0704,-0.0711,-0.0679,-0.068,-0.0752,-0.0759,-0.0766,-0.0807,-0.0793,-0.0797,-0.0799,-0.09,-0.0901,-0.0902,0,0,0,0,0,0,-0.0515,-0.0526,-0.0617,-0.0579,-0.0591,-0.0628,-0.065,-0.0656,-0.0673,-0.0713,-0.072,-0.0689,-0.0752,-0.0761,-0.0799,-0.081,-0.0798,-0.0802,-0.09,-0.0901,-0.0901,-0.0888,0,0,0,0,0,0,-0.0512,-0.0524,-0.0537,-0.0579,-0.0593,-0.0648,-0.0651,-0.0658,-0.0679,-0.068,-0.0723,-0.073,-0.0752,-0.0793,-0.0802,-0.0815,-0.0804,-0.0899,-0.09,-0.0901,-0.0888,-0.0888,-0.0889,0,0,0,0,0,-0.0507,-0.053,-0.0537,-0.0548,-0.0609,-0.0649,-0.0657,-0.0681,-0.0679,-0.0692,-0.0718,-0.0729,-0.0807,-0.0797,-0.0807,-0.0821,-0.0898,-0.09,-0.0901,-0.0887,-0.0888,-0.0889,0,0,0,0,0,0,-0.0489,-0.0536,-0.0544,-0.0581,-0.0611,-0.0653,-0.067,-0.0681,-0.0712,-0.0712,-0.0741,-0.0751,-0.0786,-0.0807,-0.0795,-0.0854,-0.0853,-0.0857,-0.0839,-0.0841,-0.0841,-0.0836,-0.0807,0,0,0,0,0,-0.0489,-0.0517,-0.0557,-0.0586,-0.06,-0.0632,-0.065,-0.0666,-0.0698,-0.0711,-0.0739,-0.077,-0.0802,-0.0822,-0.0854,-0.0891,-0.0901,-0.0905,-0.0906,-0.0906,-0.0909,-0.0931,-0.0933,-0.0906,-0.0906,-0.0906,0,0,-0.049,-0.0519,-0.0535,-0.0583,-0.0607,-0.0636,-0.0642,-0.0673,-0.0695,-0.0716,-0.0753,-0.0775,-0.0812,-0.0849,-0.0867,-0.0868,-0.0919,-0.0908,-0.0908,-0.0911,-0.0932,-0.0935,-0.0937,-0.0907,-0.0907,-0.0907,0,0,-0.0506,-0.0531,-0.0558,-0.0582,-0.0619,-0.064,-0.0646,-0.0687,-0.0702,-0.074,-0.0756,-0.0783,-0.0836,-0.0862,-0.0882,-0.0907,-0.0919,-0.0917,-0.0921,-0.0941,-0.0943,-0.0945,-0.0955,-0.0958,-0.0919,-0.0919,-0.0919,0,-0.0503,-0.0546,-0.057,-0.06,-0.062,-0.064,-0.0668,-0.069,-0.0736,-0.075,-0.075,-0.0817,-0.0843,-0.0887,-0.0893,-0.0909,-0.0918,-0.0912,-0.0941,-0.0943,-0.0946,-0.0955,-0.0959,-0.0919,-0.0919,-0.0919,-0.0919,0,-0.0541,-0.0571,-0.0588,-0.0631,-0.0653,-0.0682,-0.071,-0.0731,-0.0744,-0.0765,-0.0804,-0.0836,-0.0874,-0.0885,-0.0899,-0.0931,-0.093,-0.0935,-0.0935,-0.0947,-0.0957,-0.0961,-0.0918,-0.0918,-0.0919,-0.0919,0,0,-0.0548,-0.0603,-0.0609,-0.0629,-0.0671,-0.0695,-0.0724,-0.0761,-0.0778,-0.0808,-0.0834,-0.0879,-0.0883,-0.0906,-0.0923,-0.0941,-0.0959,-0.0943,-0.0945,-0.0946,-0.0997,-0.0994,-0.0998,-0.0967,-0.0968,-0.0968,-0.0995,0,-0.0571,-0.0624,-0.0646,-0.0689,-0.0717,-0.0735,-0.0761,-0.079,-0.081,-0.0838,-0.0861,-0.0892,-0.0895,-0.0909,-0.0928,-0.0953,-0.097,-0.0951,-0.0992,-0.0993,-0.0983,-0.1003,-0.1,-0.1023,-0.0998,-0.0999,-0.0999,0,-0.0604,-0.0634,-0.0679,-0.0718,-0.0731,-0.0753,-0.0789,-0.0814,-0.0847,-0.0861,-0.0886,-0.0902,-0.0934,-0.093,-0.0976,-0.0962,-0.098,-0.0995,-0.0996,-0.1002,-0.0998,-0.101,-0.1031,-0.1035,-0.1005,-0.1005,-0.1005,0,-0.0606,-0.0658,-0.0692,-0.0708,-0.0753,-0.0769,-0.0789,-0.0821,-0.0842,-0.0872,-0.0886,-0.0921,-0.094,-0.0966,-0.0991,-0.0986,-0.1034,-0.1033,-0.1047,-0.1046,-0.1057,-0.1056,-0.1082,-0.1067,-0.1067,-0.1067,-0.1067,0,-0.0629,-0.0656,-0.0693,-0.0714,-0.0745,-0.0771,-0.0801,-0.0822,-0.0851,-0.0877,-0.0895,-0.0919,-0.095,-0.0978,-0.0997,-0.1032,-0.104,-0.1053,-0.1058,-0.1052,-0.105,-0.1065,-0.1064,-0.1068,-0.1068,-0.1067,-0.1067,0,-0.0637,-0.0662,-0.0701,-0.074,-0.0751,-0.0772,-0.0807,-0.0828,-0.0849,-0.0881,-0.089,-0.0924,-0.0958,-0.0985,-0.1029,-0.1042,-0.1079,-0.1084,-0.1068,-0.1071,-0.1084,-0.1082,-0.112,-0.1127,-0.1106,-0.1106,-0.1107,0,-0.0651,-0.0672,-0.0713,-0.0732,-0.0751,-0.078,-0.0801,-0.0827,-0.0848,-0.0887,-0.0904,-0.0938,-0.0968,-0.1021,-0.105,-0.1084,-0.1091,-0.1102,-0.1096,-0.109,-0.1092,-0.1091,-0.1093,-0.1103,-0.1103,-0.1103,-0.1103,0,-0.0672,-0.0683,-0.0712,-0.0746,-0.077,-0.0798,-0.0826,-0.084,-0.0871,-0.0894,-0.0928,-0.0951,-0.0996,-0.1031,-0.1068,-0.1089,-0.1102,-0.1104,-0.111,-0.1104,-0.1094,-0.11,-0.107,-0.1104,-0.1104,-0.1104,-0.1104,-0.1104,-0.0684,-0.0704,-0.0736,-0.0768,-0.0791,-0.0817,-0.0839,-0.0863,-0.0892,-0.093,-0.0943,-0.0979,-0.1011,-0.1062,-0.1083,-0.1112,-0.1113,-0.1121,-0.1123,-0.1124,-0.1124,-0.1088,-0.1119,-0.1119,-0.1119,-0.1119,-0.1119,0,-0.0707,-0.0728,-0.0757,-0.0796,-0.0821,-0.0829,-0.0861,-0.0881,-0.0912,-0.0941,-0.097,-0.1009,-0.1043,-0.1074,-0.1109,-0.1126,-0.1133,-0.1135,-0.1134,-0.1139,-0.1121,-0.1113,-0.1129,-0.1129,-0.1129,-0.1129,-0.1129,-0.1129,-0.0722,-0.0756,-0.0771,-0.0818,-0.0839,-0.0874,-0.0891,-0.0915,-0.0938,-0.0982,-0.1009,-0.1029,-0.1059,-0.1096,-0.1128,-0.1136,-0.1149,-0.1149,-0.1159,-0.1142,-0.114,-0.1139,-0.1132,-0.1151,-0.1151,-0.1175,-0.1175,-0.1175]},{"header":{"parameterUnit":"m.s-1","parameterCategory":1,"la1":30.2991,"la2":30.254,"lo1":-89.0895,"lo2":-89.0444,"dy":0.0017,"dx":0.0017,"nx":28,"ny":28,"refTime":"2024-03-02T09:00:00:Z","depth":0,"parameterNumber":3,"parameterNumberName":"V-component_of_WINDS"},"data":[0,0,0,0,0,0,0,0,0,0,0,0,0,0,0,0,0,0,0,0,0,0,0,0,0,0,0,0,0,0,0,0,0,0,0,0,0,0,0,0,0,0,0,0,0,0,0,0,0,0,0,0,0,0,0,0,0,0,-2.4864,-2.4864,0,-2.4902,-2.4903,-2.4903,-2.4891,-2.489,-2.4889,-2.4888,-2.4924,-2.4926,-2.4927,0,0,0,0,0,0,0,0,0,0,0,0,0,-2.4778,-2.478,-2.4864,-2.4864,-2.4865,-2.4902,-2.4903,-2.4903,-2.4891,-2.489,-2.4889,-2.4888,-2.4923,-2.4925,-2.4927,0,0,0,0,0,0,0,0,0,0,0,0,0,-2.4816,-2.478,-2.4864,-2.4863,-2.4864,-2.4902,-2.4903,-2.4903,-2.4891,-2.489,-2.4889,-2.4887,-2.4923,-2.4925,-2.4928,-2.4968,0,0,-2.4935,-2.4937,0,0,0,0,0,0,0,0,-2.4813,-2.4819,-2.4863,-2.4863,-2.4864,-2.489,-2.4885,-2.4925,-2.4891,-2.488,-2.4888,-2.4887,-2.4913,-2.4917,-2.4926,-2.4969,-2.4971,-2.4936,-2.4937,-2.4938,-2.4939,0,0,0,0,0,0,0,-2.4811,-2.4817,-2.4879,-2.4864,-2.4864,-2.486,-2.4864,-2.4893,-2.4903,-2.4881,-2.4881,-2.4885,-2.4913,-2.4924,-2.4927,-2.4971,-2.4936,-2.4938,-2.4939,-2.494,-2.505,-2.5051,0,0,0,0,0,0,-2.4808,-2.4815,-2.4878,-2.488,-2.4835,-2.4863,-2.4867,-2.4883,-2.4903,-2.4905,-2.4886,-2.4885,-2.492,-2.4924,-2.4928,-2.4977,-2.4938,-2.4941,-2.4942,-2.5048,-2.505,-2.5052,0,0,0,0,0,0,-2.4807,-2.4814,-2.4876,-2.4847,-2.4855,-2.4866,-2.4883,-2.4884,-2.4895,-2.4907,-2.4908,-2.4895,-2.4919,-2.4925,-2.4958,-2.4978,-2.4942,-2.4944,-2.5047,-2.5049,-2.5051,-2.5075,0,0,0,0,0,0,-2.4804,-2.4814,-2.4829,-2.4848,-2.4857,-2.4906,-2.4885,-2.4886,-2.49,-2.4898,-2.4916,-2.4917,-2.4919,-2.4955,-2.4961,-2.4981,-2.4946,-2.5045,-2.5048,-2.505,-2.5072,-2.5077,-2.5082,0,0,0,0,0,-2.4801,-2.4834,-2.483,-2.4838,-2.4877,-2.4908,-2.4913,-2.4915,-2.4901,-2.4917,-2.4925,-2.4917,-2.4975,-2.4958,-2.4965,-2.4986,-2.5044,-2.5047,-2.505,-2.507,-2.5076,-2.5082,0,0,0,0,0,0,-2.4816,-2.4836,-2.4832,-2.4872,-2.4889,-2.4906,-2.4925,-2.4921,-2.494,-2.4938,-2.4938,-2.4943,-2.4977,-2.4985,-2.4966,-2.5026,-2.5007,-2.5012,-2.502,-2.5026,-2.5031,-2.5028,-2.4948,0,0,0,0,0,-2.4824,-2.4848,-2.4864,-2.4897,-2.4906,-2.4914,-2.4928,-2.4928,-2.4945,-2.4951,-2.4961,-2.4977,-2.4998,-2.5013,-2.5033,-2.5073,-2.5077,-2.5091,-2.5096,-2.51,-2.5104,-2.5126,-2.5133,-2.5062,-2.5062,-2.5062,0,0,-2.484,-2.4854,-2.4869,-2.4901,-2.4914,-2.4938,-2.492,-2.4947,-2.4965,-2.4955,-2.4988,-2.4996,-2.5013,-2.505,-2.5067,-2.5058,-2.5124,-2.5104,-2.5107,-2.5109,-2.513,-2.5137,-2.5143,-2.5064,-2.5063,-2.5063,0,0,-2.4883,-2.4896,-2.4926,-2.4939,-2.4959,-2.4965,-2.4972,-2.499,-2.4996,-2.5029,-2.5022,-2.5043,-2.5081,-2.5094,-2.5105,-2.5154,-2.5147,-2.5161,-2.5185,-2.5207,-2.5213,-2.5218,-2.5236,-2.5242,-2.5164,-2.5164,-2.5165,0,-2.49,-2.4938,-2.4941,-2.4969,-2.4983,-2.4977,-2.5007,-2.5019,-2.5044,-2.5054,-2.5043,-2.5091,-2.5102,-2.5143,-2.5155,-2.5164,-2.5172,-2.5158,-2.5212,-2.5217,-2.5222,-2.5239,-2.5245,-2.5166,-2.5166,-2.5166,-2.5166,0,-2.4959,-2.4985,-2.5007,-2.5033,-2.505,-2.5078,-2.5085,-2.5101,-2.51,-2.5107,-2.5141,-2.5154,-2.5178,-2.5187,-2.5186,-2.5228,-2.5222,-2.5212,-2.5192,-2.523,-2.5246,-2.5252,-2.5168,-2.5168,-2.5167,-2.5167,0,0,-2.5011,-2.504,-2.5048,-2.506,-2.5083,-2.5103,-2.5131,-2.5155,-2.5169,-2.5187,-2.5211,-2.5243,-2.5234,-2.5247,-2.5247,-2.5266,-2.5305,-2.5254,-2.5254,-2.5263,-2.5352,-2.536,-2.5368,-2.5301,-2.5302,-2.5303,-2.5351,0,-2.5056,-2.5107,-2.5112,-2.5157,-2.5182,-2.5177,-2.5201,-2.5217,-2.5224,-2.5245,-2.5252,-2.5276,-2.5262,-2.527,-2.5289,-2.5296,-2.5323,-2.5293,-2.5322,-2.5323,-2.5319,-2.5376,-2.5384,-2.5429,-2.5357,-2.5358,-2.5359,0,-2.5115,-2.5137,-2.5186,-2.5205,-2.5216,-2.5238,-2.5261,-2.5282,-2.53,-2.5303,-2.5319,-2.5316,-2.5345,-2.5325,-2.5364,-2.5344,-2.5356,-2.5361,-2.5363,-2.5366,-2.5344,-2.5381,-2.5443,-2.545,-2.5369,-2.5368,-2.5367,0,-2.5149,-2.519,-2.5225,-2.5235,-2.5259,-2.5275,-2.5286,-2.5302,-2.5317,-2.5337,-2.5347,-2.5369,-2.5382,-2.5399,-2.5402,-2.5387,-2.5442,-2.5422,-2.5445,-2.5445,-2.5457,-2.5456,-2.5522,-2.5464,-2.5464,-2.5464,-2.5464,0,-2.5199,-2.5229,-2.5241,-2.5262,-2.5296,-2.53,-2.5332,-2.5342,-2.5357,-2.538,-2.5376,-2.5397,-2.54,-2.5422,-2.5425,-2.5457,-2.5463,-2.5466,-2.5467,-2.5467,-2.5466,-2.5475,-2.5472,-2.5466,-2.5466,-2.5465,-2.5465,0,-2.5242,-2.5251,-2.5289,-2.5309,-2.5315,-2.5339,-2.5356,-2.5376,-2.5383,-2.5412,-2.5418,-2.5429,-2.5454,-2.546,-2.5489,-2.5492,-2.553,-2.5527,-2.5524,-2.5524,-2.5548,-2.5546,-2.5622,-2.5632,-2.5567,-2.5568,-2.5568,0,-2.5274,-2.5297,-2.5321,-2.5336,-2.5348,-2.5373,-2.5389,-2.5393,-2.541,-2.5433,-2.545,-2.5475,-2.5496,-2.5537,-2.5546,-2.5569,-2.5567,-2.5592,-2.557,-2.557,-2.5568,-2.5566,-2.5569,-2.5596,-2.5597,-2.5597,-2.5598,0,-2.5329,-2.5333,-2.5356,-2.5381,-2.5401,-2.542,-2.5439,-2.5452,-2.5459,-2.5478,-2.5505,-2.5521,-2.5552,-2.5577,-2.56,-2.561,-2.5605,-2.5605,-2.5612,-2.5612,-2.561,-2.5612,-2.5536,-2.5603,-2.5602,-2.5602,-2.5602,-2.5602,-2.5367,-2.5388,-2.5409,-2.5435,-2.545,-2.5468,-2.5489,-2.5499,-2.5522,-2.5549,-2.555,-2.5579,-2.5597,-2.5628,-2.5639,-2.5661,-2.5653,-2.5663,-2.5665,-2.5668,-2.567,-2.5606,-2.5665,-2.5665,-2.5665,-2.5665,-2.5665,0,-2.5423,-2.5436,-2.546,-2.5488,-2.5509,-2.5504,-2.5525,-2.5542,-2.5568,-2.5586,-2.5607,-2.5638,-2.5662,-2.5675,-2.5699,-2.5714,-2.5713,-2.5721,-2.5719,-2.5722,-2.5675,-2.5668,-2.5721,-2.5721,-2.5721,-2.5721,-2.5721,-2.5721,-2.5454,-2.5489,-2.5496,-2.5538,-2.5551,-2.5581,-2.5593,-2.561,-2.5624,-2.5659,-2.568,-2.5689,-2.5704,-2.573,-2.5752,-2.5755,-2.5764,-2.5773,-2.5774,-2.5731,-2.5725,-2.572,-2.5712,-2.5775,-2.5775,-2.5819,-2.5819,-2.582]}]]